User: anonymous   Login
Location: Gleizolles
(44.4833°N, 6.7667°E)
Time: 08:56:03
(UTC+00:00)
Language:

SPROUT - Orbit

View from above orbital plane
View from above orbital plane
View from above satellite
View from above satellite

Ground track
Ground track

The orbit data is extracted from the following two-line orbital elements,

1 39770U 14029E   22329.88648865  .00007168  00000-0  68793-3 0  9991
2 39770  97.9556  88.2005 0007691 271.1421  88.8902 14.93380135461736
Epoch (UTC): 25 November 2022 21:16:32
Eccentricity: 0.0007691
inclination: 97.9556°
perigee height: 582 km
apogee height: 593 km
right ascension of ascending node: 88.2005°
argument of perigee: 271.1421°
revolutions per day: 14.93380135
mean anomaly at epoch: 88.8902°
orbit number at epoch: 46173

The dashed part of the orbit path shows where the satellite is in the earth's shadow,  

DLR